Regional Weather Roundup
Issued by NWS Huntsville, AL

Home | Current Version | Previous Version | Text Only | Print | Product List | Glossary On
Versions: 1 2 3 4 5 6 7 8 9 10 11 12 13 14 15 16 17 18 19 20 21 22 23 24 25 26 27 28 29 30 31 32 33 34 35 36 37 38 39 40 41 42 43 44 45 46 47 48 49 50
000
ASUS44 KHUN 251710
RWRHUN

WEATHER ROUNDUP FOR THE TENNESSEE VALLEY
NATIONAL WEATHER SERVICE HUNTSVILLE AL
1200 PM CDT TUE APR 25 2017

ALZ001>004-251800-
NORTHWEST ALABAMA

CITY           SKY/WX    TMP DP  RH WIND       PRES   REMARKS
COURTLAND HCN    N/A     68 N/A N/A CALM        N/A
RUSSELLVILLE     N/A     72 N/A N/A MISG        N/A
SHOALS AIRPORT MOSUNNY   71  56  58 CALM      29.80F
SHOALS TVA RES   N/A     68 N/A N/A MISG        N/A
$$

ALZ005>007-016-251800-
NORTH CENTRAL ALABAMA

CITY           SKY/WX    TMP DP  RH WIND       PRES   REMARKS
CULLMAN AG STN   N/A     70 N/A N/A CALM        N/A
DECATUR AP     SUNNY     69  57  65 W6        29.81F
HUNTSVILLE AP  MOSUNNY   69  59  70 VRB3      29.81F
MERIDIANVILLE  SUNNY     68  55  64 CALM      29.81F
REDSTONE ARSN  MOSUNNY   68  58  72 CALM      29.80F
VINEMONT AP    PTSUNNY   71  56  59 CALM      29.83S
$$

ALZ008>010-251800-
NORTHEAST ALABAMA

CITY           SKY/WX    TMP DP  RH WIND       PRES   REMARKS
ALBERTVILLE    MOSUNNY   68  61  77 W3        29.81F
FORT PAYNE     PTSUNNY   64  52  63 CALM      29.81F
SCOTTSBORO AP  PTSUNNY   68  57  68 CALM      29.81F
SCOTTSBORO HCN   N/A     66 N/A N/A MISG        N/A
VALLEY HEAD      N/A     66 N/A N/A MISG        N/A
$$

TNZ076-096-097-251800-
SOUTHEASTERN MIDDLE TENNESSEE

CITY           SKY/WX    TMP DP  RH WIND       PRES   REMARKS
TULLAHOMA      PTSUNNY   66  55  68 CALM      29.82F
WINCHESTER     PTSUNNY   68  55  64 W5        29.81F
$$

...SURROUNDING SITES...

CITY           SKY/WX    TMP DP  RH WIND       PRES   REMARKS
ATLANTA        MOSUNNY   71  58  63 N15       29.79F
ANNISTON       MOSUNNY   72  57  59 NE6       29.81F
BIRMINGHAM     MOSUNNY   72  55  55 VRB5      29.83F
CHATTANOOGA    PTSUNNY   72  55  55 W6        29.79F
CORINTH        FAIR      73  54  49 SW8       29.76F
DALTON         PTSUNNY   68  57  68 NW8       29.79F
GADSDEN        MOSUNNY   70  57  63 CALM      29.82F
GOLDEN TRNGL   SUNNY     75  50  41 CALM      29.76F
HALEYVILLE     FAIR      72  57  59 VRB6      29.82F
JACKSON TN     SUNNY     74  52  46 SW8       29.75F
MEMPHIS        SUNNY     76  51  41 S15       29.74F
NASHVILLE      PTSUNNY   71  57  61 SE8       29.79F
OXFORD MS      FAIR      73  50  43 SE7       29.79F
ROME           PTSUNNY   72  57  59 VRB5      29.79F
SAVANNAH       SUNNY     72  55  56 CALM      29.77F
TUPELO         SUNNY     75  49  39 VRB3      29.78F
TUSCALOOSA     SUNNY     72  56  57 VRB3      29.81F
$$

...GULF COAST WEATHER...

CITY           SKY/WX    TMP DP  RH WIND       PRES   REMARKS
GULFPORT       SUNNY     76  52  43 MISG      29.83F
PASCAGOULA     SUNNY     78  55  44 MISG      29.83F
MOBILE         PTSUNNY   77  55  46 S10       29.84F
GULF SHORES    CLOUDY    72  62  69 S6G17     29.84S
PENSACOLA      PTSUNNY   76  58  53 S13       29.83F
DESTIN         SUNNY     75  59  57 VRB6      29.84F
PANAMA CITY    SUNNY     73  58  60 SW6       29.85F
APPALACHICOLA  MOSUNNY   76  57  51 SW9       29.85F
$$




USA.gov is the U.S. government's official web portal to all federal, state and local government web resources and services.